STORD / SOERSTOKKEN current weather conditions

sailwx.info

Wind from 110 at 15 knots

Air temperature 11.0° C
Visibility: greater than 5.4 NM
Dewpoint 8.0° C

Last reported at 2014-Oct-31 14:20 UTC.
Time now 2014-Oct-31 15:52 UTC

Location: N 59°48' E 005°21'.
View on Google Maps.

See reports from other nearby stations

  
Tides and Currents Weather Stations Pressure Air Temp Water Temp Dewpoint Dewpoint Depression Visibility Wind Speed Wind Dir Waves Ship Positions
date/time (UTC)wind fromknots sea level pressurealtimeterstation pressurevisibilityair tempwater tempwave heightnotes
2014-Oct-31 14:20 110 15 5.411.0
2014-Oct-31 13:50 110 15 5.410.0
2014-Oct-31 13:20 110 19 5.410.0 Light rain showers.
2014-Oct-31 12:20 110 19 5.4 9.0 Light rain drizzle.
2014-Oct-31 11:50 110 17 5.4 9.0 Rain.
2014-Oct-31 11:20 110 17 5.4 9.0 Rain.
2014-Oct-31 10:50 110 15 5.4 9.0 Rain.
2014-Oct-31 09:50 110 16 5.4 9.0 Light rain.
2014-Oct-31 09:20 110 19 5.4 9.0 Light rain.
2014-Oct-31 08:50 120 17 5.4 8.0 Light rain.
2014-Oct-31 08:20 120 16 5.4 8.0 Light rain.
2014-Oct-31 07:50 120 16 5.4 8.0 Light rain.
2014-Oct-31 07:20 110 16 5.4 8.0
2014-Oct-31 06:50 110 14 5.4 8.0
2014-Oct-31 06:20 120 14 4.9 8.0 Light rain drizzle.
2014-Oct-30 17:50 100 10 5.4 7.0 Light rain.
2014-Oct-30 17:20 110 10 5.4 7.0 Light rain.
2014-Oct-30 15:50 090 8 5.4 7.0 Light rain.
2014-Oct-30 15:20 100 10 5.4 8.0 Light rain showers.
2014-Oct-30 13:50 100 7 5.4 8.0
2014-Oct-30 12:50 100 7 5.4 8.0
2014-Oct-30 12:20 110 6 5.4 8.0
2014-Oct-30 11:20 110 6 8.0
2014-Oct-30 10:50 120 6 5.4 8.0
2014-Oct-30 10:20 100 8 5.4 8.0
2014-Oct-30 09:50 110 8 5.4 8.0
2014-Oct-30 08:50 130 7 5.4 7.0
2014-Oct-30 08:20 110 8 5.4 7.0
2014-Oct-30 07:50 120 8 5.4 6.0
2014-Oct-30 07:20 110 8 5.4 6.0
2014-Oct-30 06:50 120 6 5.4 6.0
2014-Oct-30 06:20 130 7 5.4 6.0
2014-Oct-30 05:50 120 6 5.4 6.0
2014-Oct-30 05:20 110 5 5.4 6.0
2014-Oct-30 04:50 120 6 5.4 6.0
2014-Oct-29 17:50 170 3 5.4 7.0
2014-Oct-29 17:20 080 3 5.4 6.0
2014-Oct-29 16:50 5.4 7.0
2014-Oct-29 16:20 5.4 6.0
2014-Oct-29 15:50 270 5 5.4 6.0
2014-Oct-29 15:20 260 6 5.4 7.0